Temp
13 13 12 12 13 13 13 13 13 13 12 12 13 13 12 13 12 12 13 13 14 15
13 13 12 12 12 12 12 12 12 12 12 12 12 12 12 12 12 12 12 13 14 13
12 12 12 11 10 10 11 12 12 11 11 11 11 11 12 12 12 12 11 11 12 13
12 11 11 11 11 11 11 11 11 11 11 11 11 11 11 12 11 11 11 11 11 13
11 11 11 11 11 11 11 11 11 11 11 10 11 11 10 10 11 11 11 10 10 11
10 10 10 10 10 10 10 10 10 10 9 10 10 10 10 10 10 11 11 10 9 10
10 10 10 9 10 10 10 9 9 9 9 9 9 9 9 9 9 10 10 10 10 10
10 10 10 9 9 9 9 9 9 9 9 8 8 7 8 8 8 9 10 9 9 9
8 8 9 9 9 9 9 8 8 9 8 7 7 7 7 8 8 8 9 8 8 9
8 8 8 9 8 8 8 8 8 7 7 7 6 6 7 7 7 7 8 9 8 8
8 7 7 8 8 8 8 7 7 7 6 6 5 6 7 7 7 7 8 9 8 8
7 7 7 7 7 7 7 6 6 6 5 5 5 6 6 6 6 6 7 9 8 8
6 6 6 6 6 7 6 6 5 5 5 5 5 5 6 6 5 7 6 7 6 7
6 6 6 6 6 5 5 5 4 4 5 5 5 5 5 5 6 6 4 4 5 7
Height
789 787 785 782 779 776 773 769 766 764 763 760 757 755 753 752 752 753 751 752 756 760
783 780 777 776 773 770 765 761 759 758 756 755 751 748 745 743 743 745 745 743 745 750
778 775 772 768 764 760 757 755 753 750 749 746 744 740 738 736 735 736 736 737 737 740
770 767 763 758 751 748 747 745 744 742 741 740 737 735 732 729 728 729 729 730 730 730
763 759 754 751 747 744 741 738 737 736 733 732 730 729 726 724 722 722 721 722 724 722
756 752 749 746 742 738 736 733 731 729 726 725 723 722 720 718 716 714 714 715 717 717
747 744 741 738 735 731 730 726 724 721 718 718 716 714 711 710 708 707 707 706 710 711
737 734 732 729 727 723 721 719 717 714 711 710 708 706 704 701 700 699 697 698 698 703
729 726 722 720 718 715 712 712 711 707 703 701 699 698 696 694 692 691 687 686 685 691
721 717 713 710 707 706 703 703 700 697 695 691 688 687 685 683 682 679 677 677 678 687
712 708 704 701 697 695 695 693 690 688 685 680 676 676 674 673 672 669 665 667 670 677
702 698 695 691 688 686 686 684 682 679 675 670 664 665 663 662 660 657 654 657 665 669
692 688 686 683 680 678 677 676 675 670 665 660 654 653 652 651 647 642 644 652 656 665
682 679 676 673 673 672 671 670 666 660 653 650 647 641 641 639 633 632 635 645 656 664
Wind_Speed
19 20 21 24 23 24 25 25 21 20 24 27 26 27 30 38 39 38 42 41 43 44
21 23 25 29 26 23 27 28 22 20 22 27 28 27 28 35 37 36 39 41 44 43
24 28 30 27 25 23 28 25 23 26 23 25 29 26 27 32 35 34 37 35 39 43
31 32 32 33 35 35 34 31 28 25 25 22 21 25 26 27 33 31 33 34 37 42
28 31 28 33 33 34 35 30 29 30 29 24 22 24 27 25 27 29 30 31 34 37
26 28 29 30 32 33 33 30 32 32 27 26 27 27 29 27 26 31 31 31 34 34
28 30 30 29 31 28 29 35 33 29 25 27 27 31 32 30 28 30 31 32 34 34
32 32 32 29 31 28 31 32 25 24 25 29 28 27 28 27 26 30 31 34 32 37
30 33 36 32 30 30 25 24 33 31 28 29 28 27 31 31 30 29 30 32 29 31
31 31 32 35 30 33 26 27 33 34 33 34 33 28 31 32 32 32 32 33 31 32
33 32 32 33 33 33 28 30 30 32 34 35 34 31 34 32 32 36 30 35 35 35
32 30 28 27 31 32 28 29 28 30 32 32 37 32 34 32 32 33 26 33 29 30
32 24 29 32 30 28 27 26 24 32 33 34 37 35 31 30 35 23 26 28 24 29
27 28 31 25 28 25 24 25 30 32 35 33 35 35 28 32 31 26 23 25 26 28
Wind_Direction
320 322 316 319 311 319 317 308 307 317 322 324 312 310 277 258 247 239 235 229 229 234
313 316 317 316 307 307 318 312 295 303 317 317 319 309 297 256 245 239 237 232 231 230
309 313 313 315 304 303 317 316 296 300 307 316 319 310 307 266 246 239 238 232 229 234
307 312 310 318 320 320 317 312 308 300 298 306 313 321 313 282 252 240 236 233 229 234
303 309 305 312 316 313 310 310 304 306 294 290 294 308 315 299 262 244 237 233 228 229
293 305 295 299 310 306 303 305 303 297 285 281 292 295 303 303 282 257 243 232 229 231
288 297 301 290 305 300 299 300 296 291 285 291 294 292 290 287 288 265 245 242 240 237
289 296 293 284 295 297 301 296 287 288 288 295 287 279 279 275 282 272 248 231 234 235
290 288 285 281 286 293 289 292 297 283 285 289 285 280 274 270 280 273 262 237 240 233
289 280 274 278 280 287 278 294 297 282 291 290 287 283 275 268 278 281 256 235 222 222
285 282 273 276 271 284 280 293 294 287 289 288 283 286 280 271 277 274 253 229 212 206
283 283 269 272 274 278 286 289 288 286 282 280 278 282 280 270 279 261 235 203 201 201
284 274 294 282 271 281 288 289 284 288 280 280 278 284 268 265 280 248 189 195 210 213
283 279 274 269 283 285 290 291 290 281 281 276 280 279 265 275 265 186 158 178 192 197